This is the latest recevied weather packets stored in our database for station/object CT2HRB-13. If no packets are shown the sender has not sent any weather packets the latest 10 day(s).
| Time | Temp. | Humidity | Pressure | Rain* | Wind** | Luminosity | Snow |
|---|---|---|---|---|---|---|---|
| 1777897502 | 18.33° C | 52% | 1016.9 hPa | - | - | - | - |
| 1777897201 | 17.78° C | 54% | 1016.8 hPa | - | - | - | - |
| 1777896902 | 17.78° C | 54% | 1016.9 hPa | - | - | - | - |
| 1777896602 | 17.78° C | 56% | 1017.1 hPa | - | - | - | - |
| 1777896301 | 17.78° C | 56% | 1017.1 hPa | - | - | - | - |
| 1777896002 | 18.33° C | 55% | 1017.2 hPa | - | - | - | - |
| 1777895701 | 18.33° C | 53% | 1017 hPa | - | - | - | - |
| 1777895402 | 18.33° C | 54% | 1016.9 hPa | - | - | - | - |
| 1777895102 | 17.78° C | 55% | 1017.2 hPa | - | - | - | - |
| 1777894801 | 17.78° C | 55% | 1017.2 hPa | - | - | - | - |
| 1777894501 | 18.33° C | 54% | 1017.2 hPa | - | - | - | - |
| 1777894201 | 18.33° C | 53% | 1017.2 hPa | - | - | - | - |
| 1777893902 | 17.78° C | 54% | 1017.1 hPa | - | - | - | - |
| 1777893601 | 17.78° C | 53% | 1017.1 hPa | - | - | - | - |
| 1777893301 | 18.33° C | 54% | 1017 hPa | - | - | - | - |
| 1777893002 | 18.33° C | 55% | 1017.2 hPa | - | - | - | - |
| 1777892702 | 17.78° C | 59% | 1017.1 hPa | - | - | - | - |
| 1777892402 | 17.22° C | 58% | 1017.4 hPa | - | - | - | - |
| 1777892102 | 17.78° C | 54% | 1017 hPa | - | - | - | - |
| 1777891801 | 18.33° C | 52% | 1017.1 hPa | - | - | - | - |
| 1777891501 | 17.78° C | 54% | 1017 hPa | - | - | - | - |
| 1777891201 | 17.78° C | 54% | 1017.1 hPa | - | - | - | - |
| 1777890902 | 18.33° C | 54% | 1016.9 hPa | - | - | - | - |
| 1777890601 | 17.78° C | 55% | 1016.9 hPa | - | - | - | - |
| 1777890301 | 18.33° C | 53% | 1017 hPa | - | - | - | - |
* Rain since midnight (hover to see other rain measurements)
** Current wind speed in m/s (hover to see current wind gust speed)